Hourly Weather Roundup
Issued by NWS Central Illinois

Home | Current Version | Previous Version | Text Only | Print | Product List | Glossary On
Versions: 1 2 3 4 5 6 7 8 9 10 11 12 13 14 15 16 17 18 19 20 21 22 23 24 25 26 27 28 29 30 31 32 33 34 35 36 37 38 39 40 41 42 43 44 45 46 47 48 49 50
000
NZUS43 KILX 291710
HWRILX

AREA WEATHER ROUNDUP
NATIONAL WEATHER SERVICE, LINCOLN IL
1100 AM CST THU JAN 29 2015


CITY           SKY/WX    TMP DP  RH WIND       PRES   REMARKS
BLOOMINGTON    CLOUDY    35  30  82 NW21G29   30.00R WCI  24
CHAMPAIGN      CLOUDY    35  31  85 NW20G29   29.98R FOG     WCI  24
DECATUR        CLOUDY    37  31  78 NW16G26   30.02R WCI  28
FLORA          CLOUDY    39  33  78 NW16G28   30.07R WCI  30
GALESBURG      CLOUDY    35  32  89 NW17G23   30.07R WCI  25
JACKSONVILLE   CLOUDY    40  32  74 NW17G28   30.09R WCI  31
LACON          CLOUDY    35  29  79 NW15G24   30.01R WCI  25
LAWRENCEVILLE  CLOUDY    40  34  79 NW20      30.03R HAZE    WCI  30
LITCHFIELD     CLOUDY    37  30  75 NW21G28   30.08R WCI  26
$$


CITY           SKY/WX    TMP DP  RH WIND       PRES   REMARKS
LINCOLN        CLOUDY    38  32  79 NW12G21   30.03R WCI  30
MACOMB         CLOUDY    37  33  86 NW21G29   30.11R WCI  26
MATTOON        CLOUDY    36  31  82 NW18G28   30.00R HAZE    WCI  26
MT CARMEL AP   CLOUDY    43  34  70 W22G29    30.03R WCI  34
OLNEY-NOBLE AP CLOUDY    37  34  87 W23G29    30.05R WCI  26
PARIS          CLOUDY    35  34  96 NW15G28   29.98R FOG     WCI  25
PEORIA         CLOUDY    38  29  70 NW14G25   30.04R WCI  30
PONTIAC        CLOUDY    35  32  87 NW18      29.98R WCI  25
RANTOUL        CLOUDY    36  33  88 NW20G28   29.95R FOG     WCI  25
ROBINSON       CLOUDY    38  34  85 NW24      30.02R WCI  27
SPRINGFIELD    CLOUDY    38  30  73 NW21G29   30.06R WCI  28
TAYLORVILLE    CLOUDY    36  32  87 NW14G26   30.05R WCI  27
$$

...REGIONAL REPORTS...


CITY           SKY/WX    TMP DP  RH WIND       PRES   REMARKS
CHICAGO O`HARE CLOUDY    34  27  75 NW22G28   29.90R WCI  22
KANKAKEE       CLOUDY    34  30  84 NW15G25   29.92R WCI  25
MOLINE         CLOUDY    36  30  79 NW20G28   30.06R WCI  25
MOUNT VERNON   CLOUDY    39  30  70 W8        30.10R WCI  34
PITTSFIELD     CLOUDY    39  32  75 NW15G25   30.13R WCI  31
QUINCY         CLOUDY    38  31  76 NW20G29   30.14R WCI  28
ROCKFORD       CLOUDY    34  26  72 NW14G25   29.98R WCI  25
$$


CITY           SKY/WX    TMP DP  RH WIND       PRES   REMARKS
BURLINGTON     CLOUDY    36  32  85 NW18G31   30.11R WCI  26
CEDAR RAPIDS   CLOUDY    33  30  88 NW24G32   30.11R WCI  20
DES MOINES     CLOUDY    34  27  75 N17G26    30.26R WCI  23
KIRKSVILLE     CLOUDY    37  31  78 NW14G25   30.21R WCI  28
OTTUMWA        CLOUDY    34  29  82 NW28G35   30.19R WCI  21
ST LOUIS       CLOUDY    43  30  61 NW15G23   30.14R
$$


CITY           SKY/WX    TMP DP  RH WIND       PRES   REMARKS
TERRE HAUTE    CLOUDY    36  32  85 W15G26    29.97R FOG     WCI  27
EVANSVILLE     CLOUDY    46  36  68 NW16      30.04R
INDIANAPOLIS   CLOUDY    36  32  85 W17       29.87R WCI  26
LAFAYETTE      CLOUDY    34  31  88 W16G25    29.88R FOG     WCI  24
MADISON        CLOUDY    33  26  75 NW14G24   29.97R WCI  23
MILWAUKEE      CLOUDY    33  25  72 NW16      29.89R WCI  23
$$




USA.gov is the U.S. government's official web portal to all federal, state and local government web resources and services.